Location: Ravensburg
(47.7866°N, 9.6124°E)
Time: 20:25:41
(UTC+02:00)

ITAMSAT 1 - Pass Details

Date: 23 March 2026
Orbit: 782 x 793 km, 98.7° (Epoch: 14 April)

Event Time Altitude Azimuth Distance (km) Brightness Sun altitude
Exits shadow 19:38:16 - 73° (ENE) 2,401 9.7 -10.7°
Reaches altitude 10° 19:38:38 10° 69° (ENE) 2,352 9.6 -10.8°
Maximum altitude 19:40:11 11° 51° (NE) 2,262 9.7 -11.1°
Drops below altitude 10° 19:41:44 10° 34° (NNE) 2,359 9.9 -11.3°
Sets 19:45:51 0° 2° (N) 3,296 11.1 -12.0°
